Regional Weather Roundup
Issued by NWS Memphis, TN

Home | Current Version | Previous Version | Text Only | Print | Product List | Glossary On
Versions: 1 2 3 4 5 6 7 8 9 10 11 12 13 14 15 16 17 18 19 20 21 22 23 24 25 26 27 28 29 30 31 32 33 34 35 36 37 38 39 40 41 42 43 44 45 46 47 48 49 50
000
ASUS44 KMEG 291210
RWRMEG
MEMPHIS CWA HOURLY WEATHER ROUNDUP
NATIONAL WEATHER SERVICE MEMPHIS TN
700 AM CDT WED JUL 29 2015

...WEST TENNESSEE...

CITY           SKY/WX    TMP DP  RH WIND       PRES   REMARKS
MEMPHIS INTL   MOCLDY    84  76  76 CALM      30.03R HX  93
6HR MIN TEMP:  82; 6HR MAX TEMP:  86;

NWS MEMPHIS      N/A     79 N/A N/A MISG        N/A
JACKSON        CLOUDY    78  74  87 CALM      30.03R
6HR MIN TEMP:  76; 6HR MAX TEMP:  79;

LEXINGTON      MOSUNNY   73  72  94 CALM      30.03S
DYERSBURG        N/A    N/A N/A N/A MISG        N/A
PARIS          SUNNY     73  72  94 CALM      30.04R


...EASTERN ARKANSAS...

CITY           SKY/WX    TMP DP  RH WIND       PRES   REMARKS
JONESBORO      PTCLDY    79  76  90 W3        30.02R
6HR MIN TEMP:  78; 6HR MAX TEMP:  82;

WEST MEMPHIS   PTCLDY    79  78  97 CALM      30.02R
6HR MIN TEMP:  77; 6HR MAX TEMP:  83;

BATESVILLE     CLEAR     79  73  83 CALM      30.03S
6HR MIN TEMP:  75; 6HR MAX TEMP:  81;

NEWPORT        CLEAR     80  78  94 S3        30.03R
6HR MIN TEMP:  79; 6HR MAX TEMP:  83;

WALNUT RIDGE   PTCLDY    79  75  89 S3        30.01S
6HR MIN TEMP:  79; 6HR MAX TEMP:  82;

BLYTHEVILLE    CLOUDY    81  81 100 SW5       30.02R HX  92
6HR MIN TEMP:  80; 6HR MAX TEMP:  83;

SEARCY         CLEAR     76  75  97 CALM      30.05R
6HR MIN TEMP:  75; 6HR MAX TEMP:  78;

STUTTGART      CLEAR     81  73  78 CALM      30.03R
6HR MIN TEMP:  79; 6HR MAX TEMP:  84;

PINE BLUFF     CLEAR     77  75  93 CALM      30.04R
6HR MIN TEMP:  77; 6HR MAX TEMP:  81;

MONTICELLO     CLEAR     78  75  90 CALM      30.03R
6HR MIN TEMP:  77; 6HR MAX TEMP:  83;



...NORTH MISSISSIPPI...

CITY           SKY/WX    TMP DP  RH WIND       PRES   REMARKS
TUPELO         CLOUDY    80  76  87 CALM      30.03R
6HR MIN TEMP:  78; 6HR MAX TEMP:  81;

OLIVE BRANCH   MOCLDY    81  81 100 W3        30.04S HX  91
TUNICA         PTCLDY    79  75  89 CALM      30.04R FOG
CLARKSDALE     PTCLDY    77  77 100 CALM      30.04R
CORINTH        PTSUNNY   77  75  94 CALM      30.03R FOG
GREENWOOD      CLEAR     77  74  90 CALM      30.03R FOG
6HR MIN TEMP:  76; 6HR MAX TEMP:  80;

COLUMBUS       MOSUNNY   78  76  95 W2        30.02R
6HR MIN TEMP:  76; 6HR MAX TEMP:  79;

STARKVILLE     FAIR      73  73 100 N3        30.04R FOG
GOLDEN TRIANGL SUNNY     79  73  83 NW5       30.02R


...SOUTHEAST MISSOURI...

CITY           SKY/WX    TMP DP  RH WIND       PRES   REMARKS
WEST PLAINS    CLEAR     77  73  87 W5        30.07R FOG
6HR MIN TEMP:  75; 6HR MAX TEMP:  80;

POPLAR BLUFF   PTCLDY    80  77  90 CALM      29.99S FOG
6HR MIN TEMP:  78; 6HR MAX TEMP:  81;

CAPE GIRARDEAU SUNNY     77  75  93 CALM      30.00R
6HR MIN TEMP:  75; 6HR MAX TEMP:  81;



...NORTHWEST ALABAMA...

CITY           SKY/WX    TMP DP  RH WIND       PRES   REMARKS
MUSCLE SHOALS  PTSUNNY   77  72  84 CALM      30.05R
6HR MIN TEMP:  76; 6HR MAX TEMP:  79;



...MIDDLE TENNESSEE...

CITY           SKY/WX    TMP DP  RH WIND       PRES   REMARKS
NASHVILLE      PTSUNNY   75  73  93 CALM      30.04R
6HR MIN TEMP:  73; 6HR MAX TEMP:  75;

CLARKSVILLE    MOSUNNY   73  72  96 CALM      30.02S
6HR MIN TEMP:  72; 6HR MAX TEMP:  73;



...WESTERN KENTUCKY...

CITY           SKY/WX    TMP DP  RH WIND       PRES   REMARKS
PADUCAH        MOSUNNY   75  72  90 CALM      30.00S
6HR MIN TEMP:  74; 6HR MAX TEMP:  77;

FORT CAMPBELL  MOSUNNY   74  72  95 SE2       30.02R
6HR MIN TEMP:  72; 6HR MAX TEMP:  74;



...CENTRAL ARKANSAS...

CITY           SKY/WX    TMP DP  RH WIND       PRES   REMARKS
LITTLE ROCK    PTCLDY    80  74  81 W3        30.03R
6HR MIN TEMP:  79; 6HR MAX TEMP:  83;



SKY/WX REPORTED AS FAIR MEANS FEW OR NO CLOUDS BELOW
12 THOUSAND FEET.




USA.gov is the U.S. government's official web portal to all federal, state and local government web resources and services.